カタログに戻る

SL-12 R/B(2)

運用中GEO
NORAD 20662·ROCKET BODY·🇷🇺 Russia

打ち上げ Jun 20, 1990 から Baikonur Cosmodrome

Loading…

TLE

最新Source: Space-Track

元期: Sep 14, 2026, 20:16 UTC

1 20662U 90054D   26257.84511154  .00000114  00000-0  00000-0 0  9991
2 20662  12.4347 334.8476 0012961 108.7962 251.3596  1.00508621132691

AllMySatでSL-12 R/B(2)をリアルタイム追跡

Download on the App Store